Regional Weather Roundup
Issued by NWS Charleston, SC

Current Version | Previous Version | Graphics & Text | Print | Product List | Glossary On
Versions: 1 2 3 4 5 6 7 8 9 10 11 12 13 14 15 16 17 18 19 20 21 22 23 24 25 26 27 28 29 30 31 32 33 34 35 36 37 38 39 40 41 42 43 44 45 46 47 48 49 50
000
ASUS42 KCHS 061712
RWRCHS

REGIONAL WEATHER ROUNDUP
NATIONAL WEATHER SERVICE CHARLESTON SC
1200 PM EST SAT FEB 06 2016

NOTE: "FAIR" INDICATES FEW OR NO CLOUDS BELOW 12,000 FEET WITH NO
SIGNIFICANT WEATHER AND/OR OBSTRUCTIONS TO VISIBILITY.

NOT ALL STATIONS ARE QUALITY CONTROLLED BY THE NATIONAL
WEATHER SERVICE. USE DATA WITH CAUTION...ESPECIALLY
DEWPOINT OBSERVATIONS.

NOTICE: OBSERVATIONS FOR THE SAVANNAH-HILTON HEAD INTERNATIONAL AIRPORT
/KSAV/ HAVE BEEN TEMPORARILY REMOVED DUE TO AN ERRONEOUS TEMPERATURE
SENSOR. THE OBSERVATION WILL BE REINTRODUCED ONCE REPAIRS ARE COMPLETE.

SCZ027-030-031-034>040-042>050-061800-
...SOUTHEAST SOUTH CAROLINA...

CITY           SKY/WX    TMP DP  RH WIND       PRES   REMARKS
N CHARLESTON   PTSUNNY   52  26  36 N14       30.32F
WATERFRONT PRK   N/A     49  32  51 NE9       30.19F
MOUNT PLEASANT FAIR      52  30  43 N7        30.34F
JOHNS ISLAND   PTSUNNY   52  28  40 NE9       30.33F
PINOPOLIS        N/A     46  27  46 E14       30.26F
MONCKS CORNER  FAIR      48  21  34 NE10      30.35F
SUMMERVILLE    FAIR      50  28  43 N12       30.34F
BEAUFORT MCAS  CLOUDY    52  27  38 NE7       30.33F
BEAUFORT ARPT  PTSUNNY   50  30  46 NE12      30.32F
HILTON HEAD IS PTSUNNY   50  30  46 N12G21    30.33F
WALTERBORO     MOSUNNY   52  27  37 E10       30.34F
ALLENDALE      CLOUDY    46  25  42 CALM      30.35S

...SOUTHERN MIDLANDS AND PEE DEE...

CITY           SKY/WX    TMP DP  RH WIND       PRES   REMARKS
GEORGETOWN     NOT AVBL
KINGSTREE      NOT AVBL
ORANGEBURG     PTSUNNY   49  23  36 N13       30.36F
BARNWELL       PTSUNNY   46  28  49 NE10      30.37F
AIKEN          PTSUNNY   45  21  39 NE8       30.39F
MANNING        NOT AVBL
COLUMBIA       PTSUNNY   47  19  33 E10       30.38F
SUMTER         MOSUNNY   48  25  40 NE12      30.36F
FLORENCE       MOSUNNY   46  25  43 NE12      30.39F
MYRTLE BEACH   MOSUNNY   50  28  43 E9        30.38F
N MYRTLE BEACH CLOUDY    50  27  40 NE12      30.35F

$$

GAZ063-065-086>088-099>101-113>116-118-119-134>141-150-061800-
...SOUTHEAST GEORGIA...

CITY           SKY/WX    TMP DP  RH WIND       PRES   REMARKS
SAVANNAH ARPT  PTSUNNY   52  26  36 E13       30.32F
HUNTER AAF     PTSUNNY   51  30  43 NE12      30.30F
FORT STEWART   CLOUDY    50  28  43 NE5       30.29F
STATESBORO     CLOUDY    53  18  24 NE7       30.33F
SYLVANIA       PTSUNNY   50  31  48 NE10      30.34F
CLAXTON        PTSUNNY   52  31  45 NE7       30.32F

...CSRA...CENTRAL AND FAR SOUTHEAST GEORGIA...

CITY           SKY/WX    TMP DP  RH WIND       PRES   REMARKS
THOMSON        MOSUNNY   50  26  39 NE12G17   30.41F
AUGUSTA-BUSH   PTSUNNY   49  20  31 NE12      30.37F
AUGUSTA-DANIEL PTSUNNY   50  19  29 NE13      30.36F
SWAINSBORO     CLOUDY    48  27  43 NE9       30.34F
VIDALIA        CLOUDY    48  27  43 NE7       30.32F
EASTMAN        CLOUDY    50  26  38 E7        30.35F
HAZLEHURST     CLOUDY    51  27  38 E7        30.30F
ALMA           CLOUDY    50  29  44 VRB3      30.30F
WAYCROSS       CLOUDY    54  34  46 NE8       30.30F
JESUP          CLOUDY    52  34  50 E8        30.31F
BAXLEY         PTSUNNY   52  28  40 E9        30.30F
BRUNSWICK      CLOUDY    52  41  66 NE13G28   30.30F
SAINT SIMONS   CLOUDY    53  43  68 NE16G25   30.28F

$$

SCZ027-028-034-036>038-045-046-048>050-GAZ119-141-061800-
...LAKE AND SUPPLEMENTAL COASTAL OBSERVATIONS...

STATION/POSITION TIME  TEMP    WIND        PRES    WAVE   SWELL
                       AIR SEA DIR/SP/G            HT/PER HT/PER/DIR
                 (UTC) (F)     (DEG/KT/KT) (MB)    (FT/S) (FT/S/D)
WINYAH BAY       1545   46      50/ 14     1028.0
LAKE MURRAY      1600   43      30/  2/  6 1028.8F
ACE BASIN NERRS  NOT AVBL
FORT PULASKI     1600   48 54   40/ 14/ 19 1027.3F
SAPELO ISLAND    1600   50      40/ 10     1027.0R

$$

ANZ835-935-AMZ111-154-330-350-352-354-370-450-454-472-061800-
...C-MAN AND BUOY OBSERVATIONS...

STATION/POSITION TIME  TEMP    WIND        PRES    WAVE   SWELL
                       AIR SEA DIR/SP/G            HT/PER HT/PER/DIR
                 (UTC) (F)     (DEG/KT/KT) (MB)    (FT/S) (FT/S/D)
BUOY 41004       1650   53 65   30/ 21/ 27 1026.0F   7/ 6   2/ 9
BUOY 41008       1650   52 56   50/ 21/ 25 1025.3F   7/ 6   2/ 80/10
FOLLY BEACH CMAN 1600   46      30/ 18/ 20 1028.0F
CAPERS NEARSHORE 1608   48      50/ 19/ 23 1027.6F
FRIPP NEARSHORE  1600   49      50/ 21/ 23 1025.8F


STATION/POSITION TIME  TEMP    WIND        PRES    WAVE   SWELL
                       AIR SEA DIR/SP/G            HT/PER HT/PER/DIR
                 (UTC) (F)     (DEG/KT/KT) (MB)    (FT/S) (FT/S/D)
5E ST. MARYS GA  1621      57                N/A     7/ 6   2/110/11
FRYING PAN BUOY  1600   50 69   10/ 19/ 25 1028.5F
BUOY 41025       1650   48 72   10/ 17/ 21 1028.8F   6/11   5/ 70/11
CAPE LOOKOUT NC  NOT AVBL
BUOY 41002       1650   62 69   80/  8/ 12   N/A     8/12   8/ 30/12
BUOY 41010       1620   69 74              1022.5F
ST AUGUSTINE FL  1700   56 59  360/ 24/ 26 1023.7F


$$



USA.gov is the U.S. government's official web portal to all federal, state and local government web resources and services.